Vorticity
4 2 6 8 10 7 7 6 4 7 8 6 5 5 4 1 2 1 6 4 5 5 4 4 5 10 9 8 6 7 8 6 7 12 14 9 8 6 6 5 6 6 5 5 7 5 5 5 6
3 3 3 3 11 7 8 12 5 4 9 7 9 6 4 1 3 5 5 5 5 6 5 5 7 6 5 5 8 10 0 13 6 9 12 13 12 7 6 5 6 4 3 5 6 4 4 5 4
3 3 2 6 6 11 7 -1 2 6 10 11 7 7 5 5 9 7 6 5 7 5 1 3 10 5 4 5 7 6 5 9 8 5 4 18 12 7 3 3 3 3 4 4 4 4 9 7 5
5 5 5 1 4 10 8 6 3 12 5 8 8 6 5 4 6 6 6 7 8 8 7 6 12 1 4 5 7 9 5 5 8 6 5 3 15 12 6 4 3 4 4 2 2 4 6 11 8
8 7 4 2 4 6 9 5 5 8 9 7 6 3 6 10 8 6 7 7 13 2 5 7 8 2 3 7 7 5 6 7 9 8 6 3 5 7 12 9 5 6 8 9 9 9 8 10 10
7 6 5 3 3 6 6 7 7 7 5 4 4 7 6 1 3 7 8 10 10 8 10 9 5 3 4 4 7 5 6 8 7 8 9 7 4 3 4 4 4 5 6 9 9 8 8 7 6
1 8 4 2 2 3 3 7 9 5 7 3 3 4 2 4 5 7 11 13 10 -2 12 6 1 5 4 7 5 6 8 10 11 10 9 8 8 9 7 5 4 4 5 5 4 4 5 3 2
18 -0 8 1 2 3 6 3 10 5 10 1 5 5 1 12 12 8 9 12 10 -2 11 5 1 3 5 7 5 5 5 7 7 8 11 12 10 9 9 10 7 4 5 4 3 4 5 6 4
-0 21 1 5 1 3 3 4 4 11 9 8 6 3 3 -1 -2 7 12 11 12 1 8 4 1 5 5 2 11 7 1 -3 0 6 7 7 9 11 12 11 11 9 7 7 7 9 8 6 6
6 -5 23 1 5 3 2 4 7 7 10 7 10 5 3 4 1 7 9 12 14 2 7 5 -0 4 8 2 3 1 2 -1 -3 -0 3 6 10 9 9 11 12 12 11 10 8 7 6 6 5
8 7 -1 14 5 5 3 2 5 6 14 7 8 6 5 6 3 14 8 8 5 4 7 7 2 4 6 1 5 3 5 1 -1 -5 -5 3 5 7 6 6 6 6 5 5 4 4 4 4 4
7 13 4 9 7 7 2 1 1 7 11 8 5 7 9 9 3 13 4 8 3 6 7 6 4 5 4 -1 1 -3 0 6 6 9 5 -3 6 5 5 3 3 4 5 7 6 6 6 7 9
4 7 11 -1 13 5 5 2 4 5 6 14 2 8 9 8 6 8 8 6 6 9 9 6 6 6 4 2 -4 5 2 -7 6 1 5 3 3 6 5 6 3 4 2 2 3 6 7 7 9
4 7 8 9 1 13 4 -1 4 6 8 12 5 5 14 9 3 14 5 3 7 7 8 4 10 5 3 7 3 1 4 7 8 5 4 5 7 5 8 4 4 5 6 8 9 10 11 11 10
4 6 8 10 1 9 9 0 2 3 5 7 12 2 8 11 3 4 7 10 6 8 8 5 7 5 1 1 1 2 3 7 8 17 6 8 7 9 5 4 7 9 12 14 13 12 13 12 10
9 14 9 11 10 -1 13 4 -0 4 4 6 13 11 -0 9 4 8 7 16 5 6 9 7 5 6 6 6 5 13 2 2 10 9 15 11 5 5 5 8 13 14 11 8 7 6 7 6 7
10 1 7 3 13 3 8 10 1 5 7 7 6 10 12 5 8 4 10 15 4 3 5 10 8 2 3 3 3 1 1 10 18 9 7 6 6 7 6 10 10 7 6 5 6 8 8 6 6
15 12 -1 11 4 13 5 12 1 4 6 7 6 3 15 4 9 5 9 12 5 1 5 8 4 1 2 4 5 2 5 17 6 3 9 4 5 6 9 10 8 6 8 9 7 5 6 6 5
14 15 8 10 10 6 4 12 2 6 4 6 5 4 7 14 3 5 7 11 7 3 2 -1 2 3 0 4 5 7 20 4 4 4 6 5 6 4 5 9 11 11 9 6 6 6 5 5 6
15 4 18 12 4 14 8 9 4 2 5 6 7 9 6 17 4 8 4 11 10 7 2 2 6 2 3 1 6 17 3 6 7 9 6 4 4 5 11 10 7 6 6 6 6 6 6 4 5
11 7 2 7 13 10 13 12 3 6 6 8 6 9 9 10 5 11 6 11 9 5 6 2 4 2 2 2 18 3 4 0 8 5 5 5 6 12 11 7 5 6 7 6 7 6 1 5 3
9 3 9 -3 47 9 17 10 5 5 7 7 7 8 11 9 4 6 6 11 9 6 4 5 2 3 6 18 9 8 5 6 5 5 5 9 10 9 7 8 8 7 7 6 0 3 5 2 2
18 1 17 -60 16 14 0 10 -0 5 2 6 7 11 13 8 7 6 7 8 11 9 5 1 2 3 12 8 5 4 5 5 7 6 9 9 10 9 9 7 6 5 2 4 5 4 4 4 6
6 -1 3 -11 9 -5 19 48 3 11 0 10 8 9 13 8 10 2 8 9 8 6 2 2 2 3 4 5 5 6 6 8 7 7 10 10 9 9 7 6 3 3 6 6 5 6 6 6 6
26 25 -23 4 -9 2 -41 -1 6 2 9 3 9 11 11 7 11 5 8 9 7 4 1 3 3 4 6 7 9 9 7 7 7 12 10 10 7 5 4 4 6 6 5 5 5 5 5 5 7
41 33 -19 31 -1 33 3 11 6 1 9 17 14 10 13 10 10 6 10 9 7 4 2 3 3 5 8 10 8 7 7 11 10 9 8 6 5 4 7 6 4 5 5 5 6 6 7 9 8
-6 -4 -113 59 49 32 5 11 2 3 8 4 7 17 12 15 9 3 8 10 7 5 5 5 8 8 8 8 8 8 11 7 8 7 6 6 7 6 4 5 4 5 5 6 7 8 8 9 10
-11 -35 -35 5 -12 6 9 10 3 8 6 9 9 9 10 13 11 8 8 7 7 7 8 7 6 6 8 9 13 9 8 9 7 6 7 6 5 5 5 4 5 5 7 7 8 8 10 10 8
48 36 -2 -3 58 31 12 11 11 -1 10 9 9 11 9 6 7 7 7 7 8 7 8 6 6 8 12 12 7 8 9 7 4 5 5 4 5 4 3 4 6 6 7 9 12 12 11 9 8
0 -8 44 -4 8 -0 7 12 16 6 7 10 10 9 7 12 12 10 10 9 6 5 5 8 11 13 10 6 8 9 7 3 5 6 3 4 4 3 4 5 6 10 13 12 12 11 8 5 1
Height
5825 5825 5827 5829 5832 5832 5834 5835 5832 5835 5835 5839 5842 5844 5846 5844 5845 5846 5846 5846 5847 5848 5849 5849 5849 5848 5847 5846 5846 5845 5845 5845 5845 5844 5844 5845 5846 5847 5849 5850 5850 5850 5850 5850 5850 5850 5850 5849 5848
5820 5822 5823 5825 5827 5828 5830 5830 5829 5828 5836 5838 5839 5840 5840 5837 5842 5842 5843 5843 5844 5846 5846 5847 5847 5846 5845 5845 5845 5844 5844 5844 5843 5842 5841 5842 5843 5844 5845 5846 5847 5847 5847 5847 5847 5846 5846 5845 5845
5815 5817 5819 5821 5822 5824 5824 5823 5826 5832 5832 5835 5836 5838 5836 5833 5838 5839 5840 5840 5841 5843 5845 5845 5845 5844 5844 5843 5843 5843 5842 5842 5841 5841 5840 5839 5840 5841 5842 5843 5843 5844 5844 5843 5843 5842 5842 5842 5842
5809 5812 5815 5816 5818 5819 5820 5821 5826 5826 5828 5831 5834 5834 5832 5830 5834 5835 5836 5836 5838 5840 5842 5843 5843 5843 5843 5842 5841 5840 5840 5840 5839 5839 5838 5838 5837 5838 5839 5840 5840 5840 5841 5840 5839 5839 5838 5837 5836
5803 5806 5808 5811 5813 5815 5816 5816 5821 5823 5826 5828 5829 5828 5830 5831 5832 5832 5832 5833 5835 5838 5839 5840 5841 5841 5840 5839 5839 5838 5837 5837 5837 5836 5836 5835 5835 5835 5836 5836 5836 5836 5836 5836 5835 5834 5834 5833 5832
5796 5800 5803 5806 5809 5810 5812 5813 5817 5819 5821 5825 5825 5828 5824 5827 5828 5828 5828 5830 5832 5835 5837 5837 5838 5838 5837 5837 5836 5835 5834 5834 5833 5833 5833 5832 5832 5832 5832 5832 5831 5831 5831 5831 5830 5829 5828 5827 5826
5791 5793 5798 5801 5803 5804 5807 5808 5814 5814 5818 5820 5824 5824 5818 5825 5825 5825 5825 5826 5829 5831 5833 5833 5834 5835 5834 5834 5834 5833 5832 5831 5830 5830 5829 5828 5828 5827 5827 5827 5826 5826 5825 5825 5824 5823 5822 5821 5820
5784 5786 5791 5796 5798 5800 5803 5802 5808 5810 5814 5814 5821 5820 5811 5825 5820 5820 5820 5822 5824 5827 5829 5830 5831 5831 5832 5832 5831 5831 5830 5829 5827 5826 5825 5824 5823 5822 5821 5821 5820 5819 5819 5818 5817 5817 5816 5816 5816
5776 5779 5785 5791 5794 5796 5798 5797 5802 5806 5810 5811 5814 5816 5812 5819 5816 5817 5818 5817 5819 5823 5825 5826 5827 5828 5828 5829 5828 5828 5827 5826 5825 5823 5821 5820 5818 5817 5816 5815 5814 5814 5813 5813 5812 5812 5812 5811 5810
5768 5772 5781 5786 5789 5790 5790 5791 5798 5802 5805 5806 5808 5809 5808 5811 5811 5813 5814 5814 5815 5818 5821 5822 5823 5824 5824 5826 5825 5824 5823 5823 5822 5820 5819 5817 5815 5814 5812 5811 5810 5809 5808 5808 5807 5806 5805 5804 5803
5761 5766 5773 5778 5782 5783 5783 5787 5793 5796 5800 5802 5802 5801 5803 5807 5810 5809 5810 5810 5812 5814 5817 5818 5819 5820 5821 5821 5821 5821 5821 5819 5818 5817 5815 5814 5812 5810 5809 5807 5807 5805 5804 5803 5801 5800 5798 5797 5796
5752 5758 5765 5771 5773 5775 5778 5783 5786 5790 5796 5795 5797 5798 5801 5804 5805 5804 5806 5808 5808 5810 5812 5814 5815 5815 5817 5817 5818 5817 5816 5815 5814 5812 5810 5809 5808 5806 5805 5803 5802 5800 5799 5797 5795 5793 5791 5789 5787
5743 5749 5755 5762 5765 5768 5771 5776 5781 5784 5789 5789 5788 5793 5796 5799 5800 5801 5802 5804 5805 5807 5808 5810 5811 5812 5812 5813 5813 5813 5812 5811 5809 5808 5806 5804 5802 5800 5799 5797 5796 5794 5792 5790 5788 5785 5783 5781 5779
5736 5738 5745 5753 5757 5760 5763 5771 5772 5781 5783 5782 5783 5790 5792 5794 5795 5797 5798 5800 5801 5803 5805 5806 5807 5807 5808 5809 5809 5808 5807 5806 5805 5803 5801 5799 5796 5795 5793 5791 5789 5787 5785 5782 5780 5778 5775 5773 5771
5724 5726 5732 5742 5749 5751 5756 5762 5766 5776 5774 5774 5780 5784 5787 5789 5791 5791 5794 5795 5796 5799 5800 5802 5802 5803 5804 5804 5804 5803 5802 5801 5799 5797 5795 5793 5791 5789 5787 5785 5782 5780 5777 5774 5772 5769 5767 5765 5763
5714 5718 5724 5738 5740 5745 5748 5754 5764 5767 5767 5772 5776 5779 5781 5784 5786 5788 5789 5790 5792 5794 5796 5796 5797 5798 5799 5800 5798 5798 5796 5795 5792 5791 5789 5787 5785 5783 5780 5778 5775 5772 5769 5767 5764 5762 5760 5758 5756
5703 5709 5719 5726 5732 5737 5741 5747 5758 5759 5761 5767 5771 5772 5776 5779 5781 5784 5784 5785 5787 5790 5791 5792 5793 5793 5794 5795 5794 5792 5791 5789 5786 5785 5784 5782 5779 5777 5774 5771 5768 5765 5762 5759 5757 5754 5752 5750 5747
5695 5700 5709 5717 5727 5729 5734 5738 5750 5751 5756 5762 5766 5766 5771 5774 5776 5777 5779 5780 5782 5785 5787 5788 5789 5789 5789 5789 5788 5787 5785 5783 5781 5780 5778 5776 5773 5771 5768 5765 5762 5758 5755 5752 5749 5746 5743 5739 5737
5685 5692 5699 5709 5715 5720 5728 5733 5743 5745 5750 5754 5760 5761 5765 5769 5771 5772 5773 5775 5778 5781 5783 5784 5784 5784 5784 5783 5783 5781 5778 5777 5775 5773 5771 5769 5767 5763 5760 5757 5754 5751 5748 5744 5741 5737 5734 5729 5725
5672 5680 5690 5701 5708 5713 5720 5726 5735 5739 5742 5749 5753 5756 5759 5762 5764 5766 5768 5771 5773 5776 5778 5779 5779 5779 5778 5778 5777 5775 5773 5771 5769 5767 5765 5762 5760 5756 5753 5749 5746 5742 5739 5735 5731 5727 5724 5719 5714
5660 5671 5685 5695 5703 5707 5713 5718 5728 5734 5737 5743 5747 5750 5753 5756 5759 5761 5764 5766 5769 5771 5773 5773 5773 5773 5773 5772 5771 5769 5767 5766 5763 5761 5758 5755 5752 5748 5745 5741 5737 5733 5729 5726 5722 5718 5713 5709 5704
5651 5671 5679 5688 5692 5698 5706 5710 5722 5726 5728 5734 5741 5741 5748 5750 5753 5756 5759 5762 5764 5765 5767 5768 5768 5768 5767 5764 5763 5762 5761 5759 5756 5754 5751 5747 5743 5739 5735 5732 5728 5724 5720 5716 5712 5706 5701 5696 5691
5650 5662 5670 5677 5682 5692 5698 5704 5717 5717 5721 5730 5734 5735 5742 5745 5747 5750 5754 5756 5758 5760 5761 5762 5762 5762 5760 5758 5757 5756 5754 5752 5749 5746 5742 5739 5735 5731 5726 5723 5719 5715 5710 5705 5700 5695 5689 5683 5676
5647 5653 5666 5672 5681 5681 5690 5697 5709 5708 5721 5723 5726 5730 5736 5738 5741 5745 5749 5751 5753 5755 5756 5756 5756 5755 5754 5752 5751 5749 5746 5744 5741 5737 5734 5730 5727 5724 5719 5715 5711 5706 5701 5695 5689 5682 5676 5669 5661
5629 5644 5650 5658 5657 5665 5682 5692 5701 5704 5711 5718 5722 5726 5729 5732 5735 5739 5743 5745 5747 5749 5749 5749 5749 5748 5747 5746 5744 5741 5739 5736 5733 5730 5726 5722 5718 5715 5710 5705 5700 5695 5689 5683 5676 5669 5661 5653 5645
5620 5638 5646 5655 5662 5665 5678 5684 5693 5698 5708 5713 5717 5720 5724 5727 5730 5734 5737 5739 5741 5742 5742 5742 5742 5741 5740 5739 5736 5733 5731 5728 5725 5721 5718 5714 5710 5706 5701 5695 5689 5683 5677 5670 5662 5654 5646 5638 5628
5618 5625 5639 5655 5660 5667 5676 5684 5692 5695 5704 5708 5712 5716 5719 5721 5724 5728 5731 5733 5734 5735 5735 5735 5735 5733 5732 5731 5728 5726 5723 5720 5717 5714 5710 5706 5702 5696 5691 5684 5678 5671 5663 5656 5648 5639 5629 5620 5610
5621 5633 5641 5651 5657 5664 5674 5681 5688 5694 5699 5704 5708 5711 5714 5716 5719 5722 5725 5727 5728 5728 5728 5728 5727 5726 5725 5723 5721 5718 5716 5713 5709 5706 5701 5696 5691 5685 5679 5672 5664 5656 5648 5639 5630 5621 5611 5602 5592
5618 5627 5641 5646 5655 5661 5670 5676 5683 5694 5697 5700 5704 5706 5708 5710 5714 5717 5719 5720 5720 5720 5722 5721 5720 5719 5717 5715 5713 5711 5708 5704 5700 5696 5691 5686 5679 5673 5666 5658 5650 5641 5632 5623 5614 5604 5594 5585 5576
5623 5631 5637 5648 5653 5660 5668 5675 5683 5688 5693 5695 5697 5701 5702 5705 5708 5711 5713 5713 5713 5715 5714 5714 5713 5711 5709 5708 5706 5703 5699 5695 5691 5686 5681 5674 5667 5660 5652 5644 5635 5625 5616 5607 5598 5589 5579 5568 5557